Beaufort, NC

11:14 PM EDT on August 17, 2019 (GMT -0400)
Smith

Weather History for KMRH - May, 2019

Change the Weather History Date:

Wednesday, May 15, 2019

  Actual Average Record
Temperature  
Mean Temperature 62 °F -  
Max Temperature 71 °F 77 °F 91 °F (1962)
Min Temperature 54 °F 60 °F 50 °F (1964)
Degree Days  
Heating Degree Days 2    
Growing Degree Days 12 (Base 50)    
Moisture  
Dew Point 46 °F    
Average Humidity 54    
Maximum Humidity 67    
Minimum Humidity 39    
Precipitation  
Precipitation 0.00 in - - ()
Sea Level Pressure  
Sea Level Pressure 30.02 in    
Wind  
Wind Speed 9 mph (WNW)    
Max Wind Speed 14 mph    
Max Gust Speed 20 mph    
Visibility 10 miles    
Events      
Averages and records for this station are not official NWS values.
T = Trace of Precipitation, MM = Missing Value Source: NWS Daily Summary

Daily Weather History Graph

Daily Weather History Graph

Search for Another Location

Airport or City:

Astronomy

May. 15, 2019 Rise Set
Actual Time 6:03 AM EDT 8:02 PM EDT
Civil Twilight 5:35 AM EDT 8:30 PM EDT
Nautical Twilight 5:02 AM EDT 9:04 PM EDT
Astronomical Twilight 4:25 AM EDT 9:41 PM EDT
Moon 4:42 PM EDT (5/15) 4:15 AM EDT (5/15)
Length of Visible Light 14h 54m
Length of Day
13h 58m
Waxing Gibbous, 87% of the Moon is Illuminated
May 15
Waxing Gibbous
May 18
Full
May 26
Last Quarter
Jun 3
New
Jun 10
First Quarter

Hourly Weather History & Observations

Time (EDT) Temp. Dew Point Humidity Pressure Visibility Wind Dir Wind Speed Gust Speed Precip Events Conditions
12:58 AM 59.0 °F 48.0 °F 67% 29.97 in 10.0 mi North 9.2 mph - N/A   Clear
1:58 AM 57.9 °F 45.0 °F 62% 29.97 in 10.0 mi North 9.2 mph - N/A   Clear
2:58 AM 57.0 °F 44.1 °F 62% 29.95 in 10.0 mi North 11.5 mph - N/A   Clear
3:58 AM 55.0 °F 42.1 °F 62% 29.96 in 10.0 mi North 8.1 mph - N/A   Clear
4:58 AM 55.0 °F 42.1 °F 62% 29.97 in 10.0 mi North 8.1 mph - N/A   Clear
5:58 AM 54.0 °F 42.1 °F 64% 30.00 in 10.0 mi North 8.1 mph - N/A   Clear
6:58 AM 55.0 °F 43.0 °F 64% 30.01 in 10.0 mi North 5.8 mph - N/A   Clear
7:58 AM 59.0 °F 44.1 °F 58% 30.03 in 10.0 mi North 9.2 mph - N/A   Clear
9:58 AM 64.9 °F 42.1 °F 43% 30.06 in 10.0 mi North 10.4 mph - N/A   Clear
10:58 AM 66.9 °F 43.0 °F 42% 30.06 in 10.0 mi NNW 13.8 mph - N/A   Clear
11:58 AM 66.9 °F 43.0 °F 42% 30.06 in 10.0 mi Variable 3.5 mph - N/A   Clear
12:58 PM 69.1 °F 44.1 °F 40% 30.05 in 10.0 mi NNW 5.8 mph - N/A   Clear
1:58 PM 71.1 °F 45.0 °F 39% 30.03 in 10.0 mi NW 8.1 mph - N/A   Partly Cloudy
2:58 PM 69.1 °F 48.9 °F 49% 30.02 in 10.0 mi SSW 11.5 mph 19.6 mph N/A   Scattered Clouds
3:08 PM 66.0 °F 46.9 °F 50% 30.01 in 10.0 mi South 11.5 mph - N/A   Scattered Clouds
3:58 PM 68.0 °F 48.0 °F 49% 30.01 in 10.0 mi SSW 12.7 mph - N/A   Clear
4:58 PM 68.0 °F 48.0 °F 49% 30.01 in 10.0 mi South 10.4 mph - N/A   Clear
5:58 PM 66.9 °F 46.0 °F 47% 30.01 in 10.0 mi SSE 10.4 mph - N/A   Clear
6:58 PM 66.9 °F 45.0 °F 45% 30.01 in 10.0 mi SSW 8.1 mph - N/A   Clear
7:58 PM 64.0 °F 46.9 °F 54% 30.03 in 10.0 mi South 6.9 mph - N/A   Clear
8:58 PM 64.0 °F 46.9 °F 54% 30.04 in 10.0 mi SSW 5.8 mph - N/A   Clear
9:58 PM 64.0 °F 48.9 °F 58% 30.04 in 10.0 mi SSW 8.1 mph - N/A   Clear
10:58 PM 64.9 °F 50.0 °F 58% 30.05 in 10.0 mi WSW 6.9 mph - N/A   Clear
11:58 PM 64.0 °F 52.0 °F 65% 30.05 in 10.0 mi SW 8.1 mph - N/A   Clear